Miscellaneous Local Product
Issued by NWS Hastings, NE

Home | Current Version | Previous Version | Text Only | Print | Product List | Glossary On
Versions: 1 2 3 4 5 6 7 8 9 10 11 12 13 14 15 16 17 18 19 20 21 22 23 24 25 26 27 28 29 30 31 32 33 34 35 36 37 38 39 40 41 42 43 44 45 46 47 48 49 50
000
AXUS43 KGID 220910
MISGRI

GID CWA HOURLY WEATHER ROUNDUP
NATIONAL WEATHER SERVICE HASTINGS NE
400 AM CDT TUE JUL 22 2014

NOTE: "FAIR" INDICATES FEW OR NO CLOUDS BELOW 12,000 FEET WITH NO
SIGNIFICANT WEATHER AND/OR OBSTRUCTIONS TO VISIBILITY.

...SOUTH CENTRAL NEBRASKA...

CITY           SKY/WX    TMP DP  RH WIND       PRES   REMARKS
GRAND ISLAND   MOCLDY    80  70  71 SW10      29.96S
HASTINGS       MOCLDY    75  67  76 W7        29.98R
KEARNEY        PTCLDY    77  64  65 SW7       29.99F
ORD            CLEAR     70  63  78 W5        29.96R
YORK           MOCLDY    81  72  74 N13       29.94S
AURORA         MOCLDY    79  72  79 SW8       29.95F
LEXINGTON      PTCLDY    76  64  64 S3        30.00R
HOLDREGE       PTCLDY    71  63  75 W6        30.00S
HEBRON         CLEAR     77  67  71 SW6       29.96R

...NEBRASKA PANHANDLE...

CITY           SKY/WX    TMP DP  RH WIND       PRES   REMARKS
CHADRON        PTCLDY    70  61  73 N8        30.13R
ALLIANCE       PTCLDY    70  54  56 N12       30.10S
SCOTTSBLUFF    CLEAR     64  55  72 W8        30.12R
SIDNEY         PTCLDY    65  51  60 W9        30.11R

...WESTERN AND NORTH CENTRAL NEBRASKA...

CITY           SKY/WX    TMP DP  RH WIND       PRES   REMARKS
VALENTINE      MOCLDY    74  65  73 N13       30.09R
AINSWORTH      PTCLDY    73  63  70 N13       30.10R
ONEILL         MOCLDY    79  60  51 NE13G18   29.94F
BROKEN BOW     PTCLDY    74  62  66 NW10      30.01R
IMPERIAL       PTCLDY    69  60  73 S8        30.04F
NORTH PLATTE   PTCLDY    76  60  57 SW3       30.01R
MCCOOK         CLEAR     72  63  73 W5        30.02R

...EASTERN NEBRASKA...

CITY           SKY/WX    TMP DP  RH WIND       PRES   REMARKS
NORFOLK        PTCLDY    76  70  82 W5        29.91R
SO SIOUX CITY  CLEAR     79  74  84 N6        29.85S
TEKAMAH        MOCLDY    82  72  71 CALM      29.87R
COLUMBUS       MOCLDY    84  70  61 SW12      29.92R
ALBION         PTCLDY    74  69  84 S5        29.94R
OMAHA EPPLEY   CLOUDY    89  69  51 S7        29.89R HX  93
OFFUTT AFB     MOCLDY    82  73  73 SE3       29.89R
MILLARD        MOCLDY    86  71  60 CALM      29.89R HX  92
LINCOLN        MOCLDY    83  69  62 SW10      29.92R
NEBRASKA CITY  MOCLDY    80  72  76 SW15      29.91F
BEATRICE       PTCLDY    73  69  87 SE3       29.95S
FALLS CITY     PTCLDY    78  74  87 SW5       29.94R

...NORTHERN KANSAS...

CITY           SKY/WX    TMP DP  RH WIND       PRES   REMARKS
GOODLAND       CLEAR     71  59  65 SW13      30.08S
HILL CITY      CLEAR     73  60  63 S6        30.02R
NORTON         SUNNY     72  57  60 W10       30.01
PHILLIPSBURG   CLEAR     70  63  78 CALM      29.98S
SMITH CENTER   CLEAR     70  64  83 S8        29.99R
HAYS           CLEAR     68  59  73 S5        30.01S
RUSSELL        PTCLDY    71  67  87 SE9       29.99S
CONCORDIA      CLEAR     79  72  79 SW12      29.97S
SALINA         PTCLDY    80  73  79 S8        29.98S
TOPEKA         PTCLDY    80  75  84 VRB6      29.97S



USA.gov is the U.S. government's official web portal to all federal, state and local government web resources and services.